| time (UTC) | temp F | wind direction | speed MPH | gust MPH | rain 1hr in | rain 24hr in | rain mn in | humidity % | barometer mb |
| 20260507113912 | 55 | 54 | 3.0 | 3.0 | 0.00 | 0.00 | 0.00 | 60 | 1016.0 |
| 20260507113909 | 55 | 54 | 3.0 | 3.0 | 0.00 | 0.00 | 0.00 | 60 | 1016.0 |
| 20260507112910 | 55 | 54 | 3.0 | 3.0 | 0.00 | 0.00 | 0.00 | ||
| 20260507111909 | 55 | 54 | 3.0 | 3.0 | 0.00 | 0.00 | 0.00 | 80 | 1016.0 |
| 20260507110909 | 55 | 54 | 3.0 | 3.0 | 0.00 | 0.00 | 0.00 | 80 | 1016.0 |
| 20260507105909 | 55 | 54 | 3.0 | 3.0 | 0.00 | 0.00 | 0.00 | 80 | 1016.0 |
| 20260507104908 | 55 | 54 | 3.0 | 3.0 | 0.00 | 0.00 | 0.00 | 80 | 1016.0 |
| 20260507103908 | 55 | 54 | 3.0 | 3.0 | 0.00 | 0.00 | 0.00 | 80 | 1016.0 |
| 20260507102908 | 55 | 54 | 3.0 | 3.0 | 0.00 | 0.00 | 0.00 | 80 | 1016.0 |
| 20260507101908 | 55 | 54 | 3.0 | 3.0 | 0.00 | 0.00 | 0.00 | 80 | 1016.0 |
| 20260507100907 | 55 | 54 | 3.0 | 3.0 | 0.00 | 0.00 | 0.00 | 80 | 1016.0 |
| 20260507095907 | 55 | 54 | 3.0 | 3.0 | 0.00 | 0.00 | 0.00 | 80 | 1016.0 |
| 20260507094907 | 55 | 54 | 3.0 | 3.0 | 0.00 | 0.00 | 0.00 | 80 | 1016.0 |
| 20260507093907 | 55 | 54 | 3.0 | 3.0 | 0.00 | 0.00 | 0.00 | 80 | 1016.0 |
| 20260507092907 | 55 | 54 | 3.0 | 3.0 | 0.00 | 0.00 | 0.00 | 80 | 1016.0 |
| 20260507091906 | 55 | 54 | 3.0 | 3.0 | 0.00 | 0.00 | 0.00 | 80 | 1016.0 |
| 20260507090906 | 55 | 54 | 3.0 | 3.0 | 0.00 | 0.00 | 0.00 | 80 | 1016.0 |
| 20260507085906 | 55 | 54 | 3.0 | 3.0 | 0.00 | 0.00 | 0.00 | 80 | 1016.0 |
| 20260507084906 | 55 | 54 | 3.0 | 3.0 | 0.00 | 0.00 | 0.00 | 80 | 1016.0 |
| 20260507083906 | 55 | 54 | 3.0 | 3.0 | 0.00 | 0.00 | 0.00 | 80 | 1016.0 |
| 20260507082906 | 55 | 54 | 3.0 | 3.0 | 0.00 | 0.00 | 0.00 | 80 | 1016.0 |
| 20260507081905 | 55 | 54 | 3.0 | 3.0 | 0.00 | 0.00 | 0.00 | 80 | 1016.0 |
| 20260507080905 | 52 | 54 | 3.0 | 3.0 | 0.00 | 0.00 | 0.00 | 79 | 1016.0 |
| 20260507075905 | 52 | 54 | 3.0 | 3.0 | 0.00 | 0.00 | 0.00 | 79 | 1016.0 |
| 20260507074905 | 52 | 54 | 3.0 | 3.0 | 0.00 | 0.00 | 0.00 | 79 | 1016.0 |
| 20260507073905 | 52 | 54 | 3.0 | 3.0 | 0.00 | 0.00 | 0.00 | 79 | 1016.0 |
| 20260507072904 | 49 | 57 | 1.0 | 1.0 | 0.00 | 0.00 | 0.00 | 83 | 1016.0 |
| 20260507071904 | 49 | 57 | 1.0 | 1.0 | 0.00 | 0.00 | 0.00 | 83 | 1016.0 |
| 20260507070904 | 49 | 57 | 1.0 | 1.0 | 0.00 | 0.00 | 0.00 | 83 | 1016.0 |
| 20260507065904 | 49 | 57 | 1.0 | 2.0 | 0.00 | 0.00 | 0.00 | 83 | 1016.0 |
| 20260507064904 | 46 | 73 | 3.0 | 4.0 | 0.00 | 0.00 | 0.00 | 89 | 1016.0 |
| 20260507063903 | 46 | 73 | 3.0 | 4.0 | 0.00 | 0.00 | 0.00 | 89 | 1016.0 |
| 20260507062903 | 46 | 73 | 3.0 | 4.0 | 0.00 | 0.00 | 0.00 | 89 | 1015.0 |
| 20260507061903 | 46 | 73 | 3.0 | 4.0 | 0.00 | 0.00 | 0.00 | 89 | 1015.0 |
| 20260507060903 | 44 | 73 | 3.0 | 4.0 | 0.00 | 0.00 | 0.00 | 87 | 1015.0 |
| 20260507055903 | 44 | 73 | 3.0 | 4.0 | 0.00 | 0.00 | 0.00 | 87 | 1015.0 |
| 20260507054903 | 44 | 73 | 3.0 | 4.0 | 0.00 | 0.00 | 0.00 | 87 | 1015.0 |
| 20260507053902 | 42 | 55 | 4.0 | 7.0 | 0.00 | 0.00 | 0.00 | 86 | 1015.0 |
| 20260507052902 | 43 | 55 | 4.0 | 7.0 | 0.00 | 0.00 | 0.00 | 86 | 1015.0 |
| 20260507051901 | 44 | 55 | 4.0 | 7.0 | 0.00 | 0.00 | 0.00 | 86 | 1015.0 |
| 20260507050901 | 44 | 55 | 4.0 | 7.0 | 0.00 | 0.00 | 0.00 | 86 | 1015.0 |
| 20260507045901 | 44 | 55 | 4.0 | 7.0 | 0.00 | 0.00 | 0.00 | 86 | 1015.0 |
| 20260507044901 | 44 | 55 | 4.0 | 7.0 | 0.00 | 0.00 | 0.00 | 86 | 1015.0 |
| 20260507043901 | 44 | 55 | 4.0 | 7.0 | 0.00 | 0.00 | 0.00 | 86 | 1014.0 |
| 20260507042901 | 44 | 55 | 4.0 | 7.0 | 0.00 | 0.00 | 0.00 | 86 | 1014.0 |
| 20260507041900 | 44 | 55 | 4.0 | 7.0 | 0.00 | 0.00 | 0.00 | 86 | 1014.0 |
| 20260507040900 | 44 | 55 | 4.0 | 7.0 | 0.00 | 0.00 | 0.00 | 86 | 1014.0 |
| 20260507035900 | 44 | 55 | 4.0 | 7.0 | 0.00 | 0.00 | 0.00 | 86 | 1014.0 |
| 20260507034900 | 44 | 55 | 4.0 | 7.0 | 0.00 | 0.00 | 0.00 | 86 | 1014.0 |
| 20260507033900 | 44 | 55 | 4.0 | 7.0 | 0.00 | 0.00 | 0.00 | 86 | 1014.0 |
| 20260507032859 | 44 | 55 | 4.0 | 7.0 | 0.00 | 0.00 | 0.00 | 86 | 1014.0 |
| 20260507031859 | 44 | 55 | 4.0 | 7.0 | 0.00 | 0.00 | 0.00 | 86 | 1014.0 |
| 20260507030859 | 44 | 55 | 4.0 | 7.0 | 0.00 | 0.00 | 0.00 | 86 | 1014.0 |
| 20260507025859 | 44 | 55 | 4.0 | 7.0 | 0.00 | 0.00 | 0.00 | 86 | 1014.0 |
| 20260507024859 | 44 | 55 | 4.0 | 7.0 | 0.00 | 0.00 | 0.00 | 86 | 1014.0 |
| 20260507023858 | 44 | 55 | 4.0 | 7.0 | 0.00 | 0.00 | 0.00 | 86 | 1014.0 |
| 20260507022858 | 44 | 55 | 4.0 | 7.0 | 0.00 | 0.00 | 0.00 | 86 | 1013.0 |
| 20260507021858 | 44 | 55 | 4.0 | 7.0 | 0.00 | 0.00 | 0.00 | 86 | 1013.0 |
| 20260507020858 | 44 | 55 | 4.0 | 7.0 | 0.00 | 0.00 | 0.00 | 86 | 1013.0 |
| 20260507015858 | 44 | 55 | 4.0 | 7.0 | 0.00 | 0.00 | 0.00 | 86 | 1014.0 |
| 20260507014857 | 44 | 55 | 4.0 | 7.0 | 0.00 | 0.00 | 0.00 | 86 | 1014.0 |
| 20260507013857 | 45 | 55 | 4.0 | 7.0 | 0.00 | 0.00 | 0.00 | 86 | 1014.0 |
| 20260507012857 | 45 | 55 | 4.0 | 7.0 | 0.00 | 0.00 | 0.00 | 86 | 1014.0 |
| 20260507011857 | 45 | 55 | 4.0 | 7.0 | 0.00 | 0.00 | 0.00 | 86 | 1014.0 |
| 20260507010857 | 45 | 55 | 4.0 | 7.0 | 0.00 | 0.00 | 0.00 | 86 | 1014.0 |
| 20260507005857 | 45 | 55 | 4.0 | 7.0 | 0.00 | 0.00 | 0.00 | 86 | 1014.0 |
| 20260507004856 | 46 | 55 | 4.0 | 7.0 | 0.00 | 0.00 | 0.00 | 86 | 1014.0 |
| 20260507003856 | 42 | 21 | 7.0 | 14.0 | 0.00 | 0.00 | 0.00 | 83 | 1013.0 |
| 20260507002856 | 42 | 21 | 7.0 | 14.0 | 0.00 | 0.00 | 0.00 | 83 | 1013.0 |
| 20260507001856 | 42 | 21 | 7.0 | 14.0 | 0.00 | 0.00 | 0.00 | 83 | 1013.0 |
| 20260507000856 | 43 | 21 | 7.0 | 14.0 | 0.00 | 0.00 | 0.00 | 83 | 1014.0 |
| 20260506235855 | 43 | 21 | 7.0 | 14.0 | 0.00 | 0.00 | 0.00 | 83 | 1014.0 |
| 20260506234855 | 43 | 21 | 7.0 | 14.0 | 0.00 | 0.00 | 0.00 | 83 | 1014.0 |
| 20260506233855 | 44 | 21 | 7.0 | 14.0 | 0.00 | 0.00 | 0.00 | 83 | 1013.0 |
| 20260506232855 | 44 | 21 | 7.0 | 14.0 | 0.00 | 0.00 | 0.00 | 83 | 1013.0 |
| 20260506231851 | 45 | 21 | 7.0 | 14.0 | 0.00 | 0.00 | 0.00 | 83 | 1013.0 |
| 20260506230851 | 46 | 21 | 7.0 | 14.0 | 0.00 | 0.00 | 0.00 | 83 | 1013.0 |
| 20260506225851 | 46 | 21 | 7.0 | 14.0 | 0.00 | 0.00 | 0.00 | 83 | 1013.0 |
| 20260506224851 | 46 | 21 | 7.0 | 14.0 | 0.00 | 0.00 | 0.00 | 83 | 1013.0 |
| 20260506223850 | 47 | 21 | 7.0 | 14.0 | 0.00 | 0.00 | 0.00 | 83 | 1013.0 |
| 20260506222850 | 47 | 21 | 7.0 | 14.0 | 0.00 | 0.00 | 0.00 | 83 | 1012.0 |
| 20260506221850 | 47 | 21 | 7.0 | 14.0 | 0.00 | 0.00 | 0.00 | 83 | 1012.0 |
| 20260506220850 | 47 | 21 | 7.0 | 14.0 | 0.00 | 0.00 | 0.00 | 83 | 1012.0 |
| 20260506215850 | 48 | 21 | 7.0 | 14.0 | 0.00 | 0.00 | 0.00 | 83 | 1013.0 |
| 20260506214850 | 49 | 21 | 7.0 | 14.0 | 0.00 | 0.00 | 0.00 | 83 | 1013.0 |
| 20260506213849 | 49 | 21 | 7.0 | 14.0 | 0.00 | 0.00 | 0.00 | 83 | 1013.0 |
| 20260506212849 | 50 | 21 | 7.0 | 14.0 | 0.00 | 0.00 | 0.00 | 83 | 1012.0 |
| 20260506211849 | 50 | 21 | 7.0 | 14.0 | 0.00 | 0.00 | 0.00 | 83 | 1012.0 |
| 20260506210849 | 51 | 21 | 7.0 | 14.0 | 0.00 | 0.00 | 0.00 | 83 | 1012.0 |
| 20260506205849 | 51 | 21 | 7.0 | 14.0 | 0.00 | 0.00 | 0.00 | 83 | 1012.0 |
| 20260506204849 | 51 | 21 | 7.0 | 14.0 | 0.00 | 0.00 | 0.00 | 83 | 1012.0 |
| 20260506203848 | 52 | 21 | 7.0 | 14.0 | 0.00 | 0.00 | 0.00 | 83 | 1012.0 |
| 20260506202848 | 52 | 21 | 7.0 | 14.0 | 0.00 | 0.00 | 0.00 | 83 | 1012.0 |
| 20260506201848 | 53 | 21 | 7.0 | 14.0 | 0.00 | 0.00 | 0.00 | 83 | 1012.0 |
| 20260506200848 | 54 | 21 | 7.0 | 14.0 | 0.00 | 0.00 | 0.00 | 83 | 1012.0 |
| 20260506195847 | 54 | 21 | 7.0 | 14.0 | 0.00 | 0.00 | 0.00 | 83 | 1012.0 |
| 20260506194847 | 54 | 21 | 7.0 | 14.0 | 0.00 | 0.00 | 0.00 | 83 | 1012.0 |
| 20260506193847 | 54 | 21 | 7.0 | 14.0 | 0.00 | 0.00 | 0.00 | 83 | 1012.0 |
| 20260506192847 | 54 | 21 | 7.0 | 14.0 | 0.00 | 0.00 | 0.00 | 83 | 1011.0 |
| 20260506191847 | 54 | 21 | 7.0 | 14.0 | 0.00 | 0.00 | 0.00 | 83 | 1011.0 |
| 20260506190847 | 54 | 21 | 7.0 | 14.0 | 0.00 | 0.00 | 0.00 | 83 | 1011.0 |
| 20260506185846 | 54 | 21 | 7.0 | 14.0 | 0.00 | 0.00 | 0.00 | 83 | 1011.0 |
| 20260506184842 | 54 | 21 | 7.0 | 14.0 | 0.00 | 0.00 | 0.00 | 83 | 1011.0 |
| 20260506183842 | 54 | 21 | 7.0 | 14.0 | 0.00 | 0.00 | 0.00 | 83 | 1011.0 |
| 20260506182842 | 54 | 21 | 7.0 | 14.0 | 0.00 | 0.00 | 0.00 | 83 | 1011.0 |
| 20260506181842 | 54 | 21 | 7.0 | 14.0 | 0.00 | 0.00 | 0.00 | 83 | 1011.0 |
| 20260506180841 | 54 | 21 | 7.0 | 14.0 | 0.00 | 0.00 | 0.00 | 83 | 1011.0 |
| 20260506175841 | 54 | 21 | 7.0 | 14.0 | 0.00 | 0.00 | 0.00 | 83 | 1011.0 |
| 20260506174841 | 54 | 21 | 7.0 | 14.0 | 0.00 | 0.00 | 0.00 | 83 | 1011.0 |
| 20260506173841 | 54 | 21 | 7.0 | 14.0 | 0.00 | 0.00 | 0.00 | 83 | 1011.0 |
| 20260506172841 | 54 | 21 | 7.0 | 14.0 | 0.00 | 0.00 | 0.00 | 83 | 1010.0 |
| 20260506171840 | 54 | 21 | 7.0 | 14.0 | 0.00 | 0.00 | 0.00 | 83 | 1010.0 |
| 20260506170840 | 54 | 21 | 7.0 | 14.0 | 0.00 | 0.00 | 0.00 | 83 | 1010.0 |
| 20260506165840 | 54 | 21 | 7.0 | 14.0 | 0.00 | 0.00 | 0.00 | 83 | 1010.0 |
| 20260506164840 | 54 | 21 | 7.0 | 14.0 | 0.00 | 0.00 | 0.00 | 83 | 1010.0 |
| 20260506163840 | 54 | 21 | 7.0 | 14.0 | 0.00 | 0.00 | 0.00 | 83 | 1010.0 |
| 20260506162839 | 54 | 21 | 7.0 | 14.0 | 0.00 | 0.00 | 0.00 | 83 | 1010.0 |
| 20260506161839 | 54 | 21 | 7.0 | 14.0 | 0.00 | 0.00 | 0.00 | 83 | 1010.0 |
| 20260506160839 | 54 | 21 | 7.0 | 14.0 | 0.00 | 0.00 | 0.00 | 83 | 1010.0 |
| 20260506155839 | 54 | 21 | 7.0 | 14.0 | 0.00 | 0.00 | 0.00 | 83 | 1010.0 |
| 20260506154839 | 54 | 21 | 7.0 | 14.0 | 0.00 | 0.00 | 0.00 | 83 | 1010.0 |
| 20260506153839 | 54 | 21 | 7.0 | 14.0 | 0.00 | 0.00 | 0.00 | 83 | 1010.0 |
| 20260506152838 | 54 | 21 | 7.0 | 14.0 | 0.00 | 0.00 | 0.00 | 83 | 1010.0 |
| 20260506151838 | 54 | 21 | 7.0 | 14.0 | 0.00 | 0.00 | 0.00 | 83 | 1010.0 |
| 20260506150838 | 54 | 21 | 7.0 | 14.0 | 0.00 | 0.00 | 0.00 | 83 | 1010.0 |
| 20260506145838 | 54 | 21 | 7.0 | 14.0 | 0.00 | 0.00 | 0.00 | 83 | 1010.0 |
| 20260506144838 | 54 | 21 | 7.0 | 14.0 | 0.00 | 0.00 | 0.00 | 83 | 1010.0 |
| 20260506143838 | 54 | 21 | 7.0 | 14.0 | 0.00 | 0.00 | 0.00 | 83 | 1010.0 |
| 20260506142837 | 54 | 21 | 7.0 | 14.0 | 0.00 | 0.00 | 0.00 | 83 | 1010.0 |
| 20260506141837 | 54 | 21 | 7.0 | 14.0 | 0.00 | 0.00 | 0.00 | 83 | 1010.0 |
| 20260506140837 | 54 | 21 | 7.0 | 14.0 | 0.00 | 0.00 | 0.00 | 83 | 1010.0 |
| 20260506135837 | 54 | 21 | 7.0 | 14.0 | 0.00 | 0.00 | 0.00 | 83 | 1010.0 |
| 20260506134837 | 54 | 21 | 7.0 | 14.0 | 0.00 | 0.00 | 0.00 | 83 | 1010.0 |
| 20260506133836 | 54 | 21 | 7.0 | 14.0 | 0.00 | 0.00 | 0.00 | 83 | 1010.0 |
| 20260506132836 | 54 | 21 | 7.0 | 14.0 | 0.00 | 0.00 | 0.00 | 83 | 1010.0 |
| 20260506131836 | 54 | 21 | 7.0 | 14.0 | 0.00 | 0.00 | 0.00 | 83 | 1010.0 |
| 20260506130836 | 54 | 21 | 7.0 | 14.0 | 0.00 | 0.00 | 0.00 | 83 | 1010.0 |
| 20260506125836 | 54 | 21 | 7.0 | 14.0 | 0.00 | 0.00 | 0.00 | 83 | 1010.0 |
| 20260506124836 | 54 | 21 | 7.0 | 14.0 | 0.00 | 0.00 | 0.00 | 83 | 1010.0 |
| 20260506123835 | 54 | 21 | 7.0 | 14.0 | 0.00 | 0.00 | 0.00 | 83 | 1010.0 |
| 20260506122835 | 54 | 21 | 7.0 | 14.0 | 0.00 | 0.00 | 0.00 | 83 | 1010.0 |
| 20260506121835 | 54 | 21 | 7.0 | 14.0 | 0.00 | 0.00 | 0.00 | 83 | 1010.0 |
| 20260506120835 | 54 | 21 | 7.0 | 14.0 | 0.00 | 0.00 | 0.00 | 83 | 1010.0 |
| 20260506115835 | 54 | 21 | 7.0 | 14.0 | 0.00 | 0.00 | 0.00 | 83 | 1010.0 |
| 20260506114834 | 54 | 21 | 7.0 | 14.0 | 0.00 | 0.00 | 0.00 | 83 | 1010.0 |